Wind_Speed
17 17 15 17 19 11 18 15 16 21 5 21 20 4 13 17 18 20 27 20 21 19 18 18 11 10 12 10 7 7 5 5
21 19 19 19 15 14 11 14 12 16 24 16 21 30 22 27 20 16 28 22 25 23 17 15 10 10 11 11 9 7 6 6
20 19 18 16 16 20 19 18 18 25 25 5 7 8 17 12 14 15 21 23 25 27 16 13 10 7 10 10 10 8 7 8
22 21 17 17 18 18 19 12 17 15 17 26 10 24 24 15 20 17 17 20 24 26 14 9 8 8 9 12 10 9 9 8
19 19 19 20 19 21 22 17 20 20 22 22 10 18 13 17 23 26 25 19 21 16 15 5 6 8 8 11 11 10 8 8
17 16 17 23 23 24 20 20 19 17 19 22 28 39 6 14 25 29 25 18 18 14 12 7 5 6 7 9 9 9 7 9
30 27 21 19 21 21 27 29 25 21 21 30 34 29 16 24 29 30 20 16 16 14 12 8 11 8 8 9 9 10 10 9
29 36 23 21 23 24 25 25 26 27 32 22 26 28 20 33 28 22 16 16 15 12 9 6 6 6 9 8 7 11 12 12
29 27 27 30 27 27 24 24 22 24 21 23 26 25 30 35 24 21 17 17 15 12 13 11 10 9 9 8 7 8 9 10
29 21 32 27 21 22 24 24 26 26 24 26 27 23 33 32 26 26 19 18 18 17 14 9 9 8 8 9 11 10 9 9
32 31 31 25 16 20 25 21 22 24 23 22 14 29 33 38 23 26 22 19 17 18 17 9 10 10 12 15 15 13 14 18
27 25 25 21 29 35 27 21 27 20 20 21 22 38 31 28 28 23 19 18 18 21 21 15 18 18 15 16 15 14 19 21
37 29 26 34 36 38 30 33 30 30 30 30 35 38 17 27 27 21 17 23 23 23 23 17 18 18 19 18 20 18 20 20
46 34 31 44 37 46 35 30 32 27 28 33 35 36 38 38 29 24 24 22 26 26 26 25 22 22 22 22 22 23 22 25
43 38 41 28 41 43 27 34 30 29 31 30 29 34 34 29 28 29 28 26 26 27 25 27 28 29 28 28 29 29 27 26
38 28 26 35 49 41 46 38 38 33 36 32 31 36 36 35 33 32 32 32 30 30 30 29 29 29 31 31 31 30 29 28
23 31 35 51 28 31 34 35 38 25 27 36 36 39 41 39 37 34 34 35 36 36 34 34 31 31 32 32 33 32 30 29
43 43 47 32 33 34 39 37 40 40 33 34 36 38 37 40 38 38 36 37 37 39 38 39 38 36 34 33 31 30 31 31
36 31 15 30 24 18 28 28 29 32 32 32 38 38 39 42 39 38 41 41 42 40 42 39 37 36 37 36 33 32 31 32
Wind_Direction
224 223 215 221 234 235 249 269 293 308 218 219 296 350 315 319 319 321 304 329 326 323 297 284 287 276 268 264 253 254 251 226
240 222 224 218 208 251 260 269 275 265 282 282 315 296 304 325 308 303 299 322 328 326 302 279 274 275 263 254 249 236 240 228
224 231 228 229 226 208 238 238 263 277 312 192 301 294 317 314 294 273 290 313 330 335 300 273 261 250 241 245 242 245 252 262
228 238 244 228 235 222 243 243 246 255 272 302 284 291 288 285 303 293 295 313 335 339 318 250 250 246 240 237 237 236 242 254
208 241 252 240 232 233 240 235 241 262 278 285 269 304 231 282 297 312 300 307 330 342 338 260 242 249 221 229 222 226 224 238
209 217 257 271 259 226 233 250 256 257 275 283 270 275 20 293 304 310 297 300 323 318 333 325 291 253 223 229 224 223 225 237
194 198 215 243 246 244 231 238 233 236 236 274 277 276 305 297 305 308 290 297 320 318 302 314 292 289 251 246 244 247 238 243
215 203 216 228 226 238 252 259 248 239 226 240 304 328 304 296 297 286 300 292 306 316 285 336 261 264 287 272 268 259 247 246
228 229 231 244 237 239 238 234 250 257 267 268 254 255 271 277 280 285 295 285 285 301 299 324 294 274 273 287 280 280 278 276
231 233 243 251 237 250 252 247 241 241 240 249 255 262 268 277 276 269 275 281 278 282 291 266 302 292 292 305 302 294 282 288
241 242 251 243 243 250 241 245 254 250 230 246 254 256 260 271 271 265 267 272 275 277 280 273 292 291 284 295 303 288 285 302
257 243 246 245 230 230 220 234 236 227 234 242 243 253 255 266 272 261 265 259 265 268 271 273 279 290 294 292 280 286 299 295
222 225 237 236 239 249 216 216 219 218 221 208 218 242 246 258 265 264 272 252 255 265 273 270 277 280 281 285 279 284 286 296
229 243 228 235 238 238 234 213 217 211 221 231 234 242 253 259 268 273 272 268 261 263 266 265 273 278 279 280 281 289 294 290
229 229 228 234 243 243 237 244 242 224 223 229 240 245 254 265 271 275 274 270 266 265 267 267 269 273 274 277 281 284 289 290
225 237 283 254 238 243 248 245 251 247 234 235 242 253 257 262 266 270 269 271 269 266 264 263 267 267 269 273 277 284 289 287
241 255 253 260 260 243 242 253 259 254 251 237 244 252 259 264 270 269 266 266 268 268 267 269 268 266 268 269 274 278 280 285
250 235 245 230 259 229 238 251 257 258 250 247 249 256 259 264 267 269 265 263 259 264 263 263 265 266 268 268 271 275 279 283
248 261 285 242 250 246 250 253 258 260 260 250 249 253 258 265 263 262 267 266 261 256 259 257 256 260 262 264 265 269 276 279
Height
5882 5885 5888 5892 5892 5895 5897 5899 5901 5896 5887 5887 5894 5894 5890 5887 5884 5881 5874 5875 5876 5876 5873 5872 5875 5874 5874 5874 5874 5874 5876 5877
5880 5882 5884 5886 5893 5894 5894 5895 5897 5897 5892 5892 5891 5890 5889 5886 5885 5881 5874 5874 5872 5871 5869 5869 5871 5870 5872 5873 5873 5873 5875 5877
5879 5878 5881 5884 5885 5888 5893 5896 5897 5893 5890 5882 5889 5887 5885 5883 5881 5879 5869 5873 5871 5866 5865 5866 5867 5869 5870 5871 5872 5873 5874 5876
5876 5876 5876 5879 5882 5885 5889 5890 5891 5893 5895 5887 5887 5888 5883 5880 5876 5876 5874 5872 5871 5866 5862 5863 5864 5866 5867 5869 5870 5871 5872 5874
5872 5877 5874 5874 5877 5882 5884 5887 5888 5890 5887 5880 5878 5875 5870 5872 5872 5873 5871 5870 5869 5867 5864 5863 5863 5864 5865 5867 5868 5869 5871 5872
5869 5873 5876 5872 5872 5874 5880 5882 5885 5885 5888 5881 5880 5875 5851 5870 5868 5868 5868 5867 5867 5866 5864 5863 5863 5864 5865 5866 5867 5867 5868 5870
5858 5863 5867 5871 5870 5871 5873 5874 5876 5881 5883 5876 5871 5869 5866 5869 5865 5865 5865 5864 5864 5864 5864 5863 5863 5863 5863 5864 5866 5866 5868 5868
5851 5854 5858 5862 5866 5868 5869 5868 5868 5870 5872 5877 5865 5856 5859 5861 5863 5864 5862 5861 5861 5862 5861 5860 5861 5861 5862 5862 5864 5863 5864 5865
5845 5849 5851 5851 5855 5858 5860 5863 5866 5866 5869 5869 5869 5867 5860 5859 5862 5860 5859 5858 5858 5859 5859 5859 5860 5861 5860 5861 5860 5860 5861 5862
5839 5843 5842 5848 5850 5852 5852 5854 5856 5858 5861 5861 5860 5860 5856 5856 5857 5855 5856 5856 5855 5855 5857 5857 5857 5857 5858 5858 5858 5857 5857 5859
5832 5833 5838 5840 5844 5847 5847 5849 5850 5850 5853 5854 5856 5851 5848 5846 5853 5851 5852 5852 5852 5852 5853 5854 5854 5854 5854 5854 5854 5854 5855 5855
5826 5828 5830 5836 5832 5829 5835 5843 5839 5842 5845 5846 5849 5839 5839 5842 5847 5847 5848 5847 5848 5846 5848 5850 5850 5850 5850 5850 5850 5851 5849 5848
5811 5814 5824 5821 5821 5824 5828 5827 5827 5831 5835 5833 5832 5833 5835 5838 5841 5842 5843 5843 5843 5843 5843 5845 5845 5846 5846 5846 5845 5845 5845 5842
5806 5798 5810 5806 5810 5814 5811 5815 5818 5821 5826 5828 5831 5832 5831 5833 5834 5835 5837 5839 5838 5838 5838 5839 5841 5841 5840 5840 5839 5839 5839 5839
5799 5799 5790 5794 5799 5803 5803 5810 5814 5815 5817 5819 5821 5822 5824 5826 5827 5828 5830 5832 5832 5832 5833 5833 5834 5834 5834 5835 5834 5835 5834 5831
5781 5791 5780 5783 5782 5789 5795 5797 5803 5804 5809 5812 5811 5813 5816 5818 5820 5821 5823 5824 5824 5825 5825 5826 5827 5828 5827 5827 5826 5826 5826 5824
5776 5786 5781 5774 5774 5777 5786 5787 5791 5795 5798 5802 5804 5804 5806 5808 5810 5812 5814 5815 5815 5815 5817 5816 5817 5818 5818 5818 5818 5818 5819 5817
5763 5765 5768 5767 5765 5751 5772 5780 5783 5785 5790 5792 5795 5796 5799 5798 5801 5802 5803 5803 5805 5803 5804 5806 5807 5808 5808 5808 5809 5809 5808 5809
5753 5757 5758 5764 5765 5764 5768 5771 5773 5774 5776 5781 5784 5787 5789 5789 5791 5790 5789 5790 5791 5793 5791 5792 5794 5797 5798 5798 5800 5800 5800 5799